| time (UTC) | temp F | wind direction | speed MPH | gust MPH | rain 1hr in | rain 24hr in | rain mn in | humidity % | barometer mb |
| 20260507074540 | 44 | 40 | 1.0 | 5.0 | 0.00 | 0.28 | 0.01 | 83 | 1015.2 |
| 20260507071532 | 44 | 143 | 4.0 | 7.0 | 0.00 | 0.28 | 0.01 | 83 | 1015.0 |
| 20260507070032 | 42 | 112 | 0.0 | 4.0 | 0.00 | 0.28 | 0.01 | 83 | 1014.8 |
| 20260507063035 | 41 | 40 | 2.0 | 6.0 | 0.00 | 0.40 | 0.01 | 82 | 1014.7 |
| 20260507060032 | 39 | 144 | 2.0 | 5.0 | 0.00 | 0.40 | 0.01 | 88 | 1014.4 |
| 20260507054529 | 38 | 93 | 1.0 | 5.0 | 0.00 | 0.46 | 0.01 | 93 | 1014.2 |
| 20260507053032 | 37 | 195 | 1.0 | 7.0 | 0.00 | 0.46 | 0.01 | 93 | 1014.1 |
| 20260507050035 | 33 | 303 | 0.0 | 2.0 | 0.00 | 0.46 | 0.01 | 93 | 1013.8 |
| 20260507043031 | 28 | 350 | 0.0 | 0.0 | 0.00 | 0.46 | 0.01 | 92 | 1013.4 |
| 20260507040030 | 26 | 350 | 0.0 | 0.0 | 0.00 | 0.46 | 0.01 | 90 | 1013.1 |
| 20260507034531 | 26 | 350 | 0.0 | 0.0 | 0.00 | 0.46 | 0.01 | 89 | 1013.0 |
| 20260507033029 | 26 | 350 | 0.0 | 0.0 | 0.00 | 0.46 | 0.01 | 89 | 1012.9 |
| 20260507030030 | 28 | 350 | 0.0 | 0.0 | 0.00 | 0.46 | 0.01 | 88 | 1012.8 |
| 20260507024528 | 29 | 350 | 0.0 | 0.0 | 0.00 | 0.46 | 0.01 | 88 | 1012.8 |
| 20260507023025 | 29 | 350 | 0.0 | 0.0 | 0.00 | 0.46 | 0.01 | 88 | 1012.8 |
| 20260507020045 | 32 | 350 | 0.0 | 0.0 | 0.00 | 0.46 | 0.01 | 89 | 1012.8 |
| 20260507013034 | 32 | 349 | 1.0 | 2.0 | 0.00 | 0.46 | 0.01 | 88 | 1012.7 |
| 20260507010026 | 34 | 349 | 0.0 | 4.0 | 0.00 | 0.46 | 0.01 | 86 | 1012.6 |
| 20260507003029 | 36 | 79 | 0.0 | 4.0 | 0.00 | 0.46 | 0.01 | 84 | 1012.6 |
| 20260507000036 | 34 | 69 | 1.0 | 4.0 | 0.00 | 0.46 | 0.01 | 89 | 1012.8 |
| 20260506233033 | 36 | 29 | 0.0 | 2.0 | 0.00 | 0.46 | 0.01 | 85 | 1012.6 |
| 20260506231526 | 38 | 26 | 0.0 | 5.0 | 0.01 | 0.46 | 0.01 | 83 | 1012.8 |
| 20260506224533 | 39 | 346 | 2.0 | 6.0 | 0.01 | 0.46 | 0.01 | 86 | 1012.8 |
| 20260506223031 | 39 | 283 | 3.0 | 8.0 | 0.01 | 0.46 | 0.01 | 89 | 1013.0 |
| 20260506220046 | 39 | 309 | 3.0 | 8.0 | 0.00 | 0.45 | 0.00 | 88 | 1012.8 |
| 20260506214527 | 39 | 322 | 2.0 | 7.0 | 0.00 | 0.45 | 0.45 | 87 | 1012.8 |
| 20260506211531 | 40 | 88 | 0.0 | 8.0 | 0.01 | 0.45 | 0.45 | 90 | 1013.2 |
| 20260506204526 | 39 | 16 | 0.0 | 7.0 | 0.01 | 0.45 | 0.45 | 87 | 1013.0 |
| 20260506201533 | 40 | 350 | 2.0 | 12.0 | 0.01 | 0.44 | 0.44 | 88 | 1012.9 |
| 20260506194527 | 40 | 283 | 3.0 | 7.0 | 0.02 | 0.45 | 0.44 | 90 | 1012.6 |
| 20260506193017 | 40 | 269 | 3.0 | 7.0 | 0.04 | 0.45 | 0.44 | 89 | 1012.5 |
| 20260506190028 | 40 | 250 | 6.0 | 12.0 | 0.05 | 0.44 | 0.43 | 88 | 1012.0 |
| 20260506183022 | 41 | 59 | 1.0 | 6.0 | 0.02 | 0.41 | 0.40 | 87 | 1011.8 |
| 20260506180028 | 42 | 18 | 2.0 | 7.0 | 0.00 | 0.39 | 0.39 | 89 | 1011.9 |
| 20260506174521 | 42 | 339 | 4.0 | 8.0 | 0.00 | 0.39 | 0.39 | 89 | 1011.9 |
| 20260506171528 | 42 | 313 | 1.0 | 8.0 | 0.00 | 0.39 | 0.39 | 84 | 1011.5 |
| 20260506170027 | 42 | 130 | 3.0 | 10.0 | 0.00 | 0.39 | 0.39 | 84 | 1011.3 |
| 20260506163035 | 42 | 95 | 1.0 | 6.0 | 0.00 | 0.42 | 0.39 | 88 | 1011.2 |
| 20260506160025 | 42 | 31 | 1.0 | 9.0 | 0.00 | 0.42 | 0.39 | 91 | 1011.4 |
| 20260506153040 | 42 | 46 | 1.0 | 5.0 | 0.00 | 0.43 | 0.39 | 91 | 1011.2 |
| 20260506151533 | 42 | 318 | 1.0 | 10.0 | 0.00 | 0.43 | 0.39 | 92 | 1011.3 |
| 20260506144530 | 42 | 281 | 1.0 | 10.0 | 0.02 | 0.43 | 0.39 | 94 | 1011.4 |
| 20260506141529 | 40 | 66 | 2.0 | 6.0 | 0.06 | 0.43 | 0.39 | 94 | 1011.4 |
| 20260506140040 | 39 | 163 | 2.0 | 10.0 | 0.05 | 0.42 | 0.38 | 93 | 1011.8 |
| 20260506134524 | 39 | 87 | 3.0 | 13.0 | 0.03 | 0.43 | 0.36 | 93 | 1011.9 |
| 20260506131529 | 41 | 164 | 2.0 | 5.0 | 0.02 | 0.39 | 0.33 | 94 | 1012.0 |
| 20260506124526 | 42 | 257 | 2.0 | 12.0 | 0.04 | 0.42 | 0.32 | 94 | 1011.9 |
| 20260506121529 | 42 | 29 | 3.0 | 13.0 | 0.04 | 0.40 | 0.31 | 94 | 1011.7 |
| 20260506120026 | 42 | 360 | 2.0 | 14.0 | 0.03 | 0.39 | 0.31 | 94 | 1011.7 |
| 20260506113032 | 42 | 247 | 7.0 | 13.0 | 0.03 | 0.41 | 0.28 | 94 | 1011.8 |
| 20260506110034 | 41 | 90 | 4.0 | 10.0 | 0.03 | 0.40 | 0.28 | 94 | 1012.2 |
| 20260506104554 | 41 | 136 | 4.0 | 11.0 | 0.02 | 0.57 | 0.27 | 94 | 1012.5 |
| 20260506103028 | 41 | 287 | 6.0 | 10.0 | 0.02 | 0.56 | 0.25 | 94 | 1012.7 |
| 20260506101525 | 40 | 248 | 4.0 | 12.0 | 0.02 | 0.55 | 0.24 | 94 | 1012.3 |
| 20260506094529 | 40 | 317 | 3.0 | 14.0 | 0.02 | 0.66 | 0.24 | 93 | 1012.5 |
| 20260506091527 | 38 | 107 | 5.0 | 11.0 | 0.01 | 0.65 | 0.23 | 93 | 1012.5 |
| 20260506084523 | 39 | 227 | 3.0 | 11.0 | 0.02 | 0.67 | 0.23 | 93 | 1012.3 |
| 20260506081526 | 39 | 36 | 2.0 | 10.0 | 0.03 | 0.66 | 0.22 | 93 | 1012.5 |